AUA269 LOWW-EDDS

Flight info

Callsign AUA269
Flight time 0h 51m
Altitude 30000
Route LUGEM1C/29 LUGEM DCT KIRDI DCT EBEDA L173 MAH/N0411F240 L173 DODIL T127 TEKSI TEKSI1W
Aircraft A320/M-SDE3FGHIRWY/LB1

Departure

Time 2026-05-07 19:02
Airport Vienna International Airport (LOWW)

Arrival

Time 2026-05-07 19:53
Airport Stuttgart Airport (EDDS)
Time Latitude Longitude Altitude Speed Heading
2026-05-07 18:25 48.12043 16.56875 621 ft 0 kts 26°
2026-05-07 18:53 48.12036 16.56870 610 ft 4 kts 26°
2026-05-07 18:53 48.12016 16.56856 626 ft 4 kts 32°
2026-05-07 18:54 48.12004 16.56832 624 ft 4 kts 103°
2026-05-07 18:54 48.12009 16.56809 626 ft 0 kts 116°
2026-05-07 18:56 48.12009 16.56810 626 ft 1 kts 116°
2026-05-07 18:56 48.11994 16.56859 619 ft 6 kts 115°
2026-05-07 18:57 48.11967 16.56940 613 ft 12 kts 116°
2026-05-07 18:57 48.11933 16.57042 617 ft 10 kts 116°
2026-05-07 18:57 48.11900 16.57143 613 ft 14 kts 116°
2026-05-07 18:57 48.11842 16.57253 615 ft 13 kts 116°
2026-05-07 18:58 48.11794 16.57350 616 ft 12 kts 155°
2026-05-07 18:58 48.11700 16.57392 620 ft 16 kts 164°
2026-05-07 18:58 48.11576 16.57443 615 ft 20 kts 165°
2026-05-07 18:58 48.11466 16.57442 610 ft 16 kts 205°
2026-05-07 18:59 48.11365 16.57369 610 ft 17 kts 205°
2026-05-07 18:59 48.11259 16.57293 618 ft 16 kts 206°
2026-05-07 18:59 48.11197 16.57305 621 ft 9 kts 121°
2026-05-07 18:59 48.11174 16.57383 614 ft 10 kts 116°
2026-05-07 19:00 48.11129 16.57519 614 ft 16 kts 116°
2026-05-07 19:00 48.11080 16.57638 610 ft 12 kts 145°
2026-05-07 19:00 48.11009 16.57623 610 ft 11 kts 205°
2026-05-07 19:00 48.10935 16.57570 610 ft 10 kts 205°
2026-05-07 19:01 48.10916 16.57528 613 ft 6 kts 277°
2026-05-07 19:01 48.10977 16.57339 617 ft 51 kts 296°
2026-05-07 19:01 48.11238 16.56537 613 ft 118 kts 296°
2026-05-07 19:01 48.11682 16.55175 637 ft 168 kts 295°
2026-05-07 19:02 48.12167 16.53616 1325 ft 166 kts 283°
2026-05-07 19:02 48.12131 16.51896 1901 ft 175 kts 258°
2026-05-07 19:02 48.11896 16.49989 2282 ft 197 kts 259°
2026-05-07 19:02 48.11646 16.47795 2629 ft 226 kts 261°
2026-05-07 19:03 48.11290 16.45402 3147 ft 250 kts 256°
2026-05-07 19:03 48.10821 16.42813 3866 ft 263 kts 256°
2026-05-07 19:03 48.10348 16.40150 4887 ft 265 kts 257°
2026-05-07 19:03 48.09882 16.37487 5964 ft 264 kts 261°
2026-05-07 19:04 48.09809 16.34731 6831 ft 268 kts 274°
2026-05-07 19:04 48.09880 16.31924 7731 ft 271 kts 274°
2026-05-07 19:04 48.10047 16.29096 8626 ft 275 kts 277°
2026-05-07 19:04 48.10271 16.26237 9559 ft 278 kts 278°
2026-05-07 19:05 48.10519 16.23342 10324 ft 287 kts 278°
2026-05-07 19:05 48.10787 16.20265 10633 ft 310 kts 278°
2026-05-07 19:05 48.11077 16.16937 10930 ft 332 kts 277°
2026-05-07 19:05 48.11372 16.13460 11560 ft 341 kts 277°
2026-05-07 19:06 48.11667 16.09918 12346 ft 344 kts 277°
2026-05-07 19:06 48.12253 16.02738 13931 ft 351 kts 276°
2026-05-07 19:06 48.12546 15.99100 14619 ft 354 kts 276°
2026-05-07 19:07 48.12842 15.95427 15281 ft 358 kts 276°
2026-05-07 19:07 48.13142 15.91711 15935 ft 362 kts 276°
2026-05-07 19:07 48.13440 15.87994 16585 ft 366 kts 275°
2026-05-07 19:07 48.13742 15.84195 17244 ft 369 kts 275°
2026-05-07 19:08 48.14045 15.80360 17896 ft 373 kts 275°
2026-05-07 19:08 48.14351 15.76479 18523 ft 377 kts 275°
2026-05-07 19:08 48.14657 15.72568 19111 ft 380 kts 275°
2026-05-07 19:08 48.14966 15.68630 19715 ft 383 kts 275°
2026-05-07 19:09 48.15278 15.64655 20310 ft 385 kts 275°
2026-05-07 19:09 48.15589 15.60656 20897 ft 388 kts 275°
2026-05-07 19:09 48.15902 15.56625 21465 ft 391 kts 275°
2026-05-07 19:09 48.16213 15.52567 22041 ft 394 kts 275°
2026-05-07 19:10 48.16525 15.48478 22603 ft 396 kts 275°
2026-05-07 19:10 48.16835 15.44371 23131 ft 398 kts 275°
2026-05-07 19:10 48.17145 15.40230 23636 ft 401 kts 274°
2026-05-07 19:10 48.17388 15.36051 24048 ft 404 kts 272°
2026-05-07 19:11 48.17535 15.31839 24462 ft 405 kts 270°
2026-05-07 19:11 48.17621 15.27605 24870 ft 407 kts 270°
2026-05-07 19:11 48.17681 15.23356 25276 ft 409 kts 269°
2026-05-07 19:11 48.17739 15.19134 25668 ft 411 kts 269°
2026-05-07 19:12 48.17808 15.14838 26055 ft 414 kts 270°
2026-05-07 19:12 48.17891 15.10519 26447 ft 416 kts 270°
2026-05-07 19:12 48.17987 15.06193 26894 ft 415 kts 270°
2026-05-07 19:12 48.18090 15.01862 27309 ft 417 kts 270°
2026-05-07 19:13 48.18192 14.97519 27681 ft 418 kts 270°
2026-05-07 19:13 48.18289 14.93149 28038 ft 420 kts 270°
2026-05-07 19:13 48.18382 14.88776 28384 ft 421 kts 270°
2026-05-07 19:13 48.18470 14.84373 28700 ft 423 kts 270°
2026-05-07 19:14 48.18556 14.79967 29024 ft 425 kts 270°
2026-05-07 19:14 48.18641 14.75526 29330 ft 426 kts 270°
2026-05-07 19:14 48.18727 14.71078 29615 ft 428 kts 270°
2026-05-07 19:14 48.18812 14.66614 29907 ft 429 kts 270°
2026-05-07 19:15 48.18895 14.62134 30144 ft 431 kts 270°
2026-05-07 19:15 48.18975 14.57646 30431 ft 430 kts 270°
2026-05-07 19:15 48.19052 14.53171 30715 ft 430 kts 270°
2026-05-07 19:15 48.19129 14.48693 30999 ft 429 kts 270°
2026-05-07 19:16 48.19207 14.44225 31280 ft 429 kts 270°
2026-05-07 19:16 48.19282 14.39760 31568 ft 429 kts 270°
2026-05-07 19:16 48.19356 14.35299 31855 ft 428 kts 270°
2026-05-07 19:16 48.19429 14.30841 32141 ft 428 kts 270°
2026-05-07 19:17 48.19496 14.26438 32426 ft 428 kts 270°
2026-05-07 19:17 48.19561 14.21991 32731 ft 427 kts 270°
2026-05-07 19:17 48.19624 14.17543 33030 ft 426 kts 270°
2026-05-07 19:17 48.19686 14.13113 33342 ft 425 kts 270°
2026-05-07 19:18 48.19746 14.08680 33641 ft 425 kts 270°
2026-05-07 19:18 48.19804 14.04261 33941 ft 424 kts 270°
2026-05-07 19:18 48.19861 13.99843 34202 ft 424 kts 270°
2026-05-07 19:18 48.19918 13.95422 34444 ft 424 kts 270°
2026-05-07 19:19 48.19972 13.91002 34683 ft 424 kts 270°
2026-05-07 19:19 48.20024 13.86582 34920 ft 424 kts 270°
2026-05-07 19:19 48.20078 13.82159 35148 ft 424 kts 270°
2026-05-07 19:19 48.20130 13.77739 35383 ft 424 kts 270°
2026-05-07 19:20 48.20179 13.73319 35602 ft 424 kts 270°
2026-05-07 19:20 48.20223 13.68894 35812 ft 425 kts 270°
2026-05-07 19:20 48.20264 13.64467 35997 ft 425 kts 269°
2026-05-07 19:20 48.20302 13.60033 36064 ft 426 kts 269°
2026-05-07 19:21 48.20381 13.51159 36062 ft 426 kts 269°
2026-05-07 19:21 48.20458 13.42288 36076 ft 426 kts 269°
2026-05-07 19:22 48.20523 13.33419 36067 ft 425 kts 269°
2026-05-07 19:22 48.20584 13.24557 36074 ft 425 kts 269°
2026-05-07 19:23 48.20639 13.15762 36063 ft 425 kts 269°
2026-05-07 19:23 48.20683 13.06893 36080 ft 425 kts 269°
2026-05-07 19:24 48.20720 12.98035 36075 ft 425 kts 269°
2026-05-07 19:24 48.20749 12.89175 36084 ft 425 kts 269°
2026-05-07 19:25 48.20655 12.80321 36082 ft 424 kts 264°
2026-05-07 19:25 48.20076 12.71511 36074 ft 424 kts 264°
2026-05-07 19:26 48.19487 12.62708 36071 ft 424 kts 264°
2026-05-07 19:26 48.18895 12.53910 36069 ft 424 kts 264°
2026-05-07 19:27 48.18303 12.45161 35970 ft 425 kts 264°
2026-05-07 19:27 48.18003 12.40757 35723 ft 424 kts 264°
2026-05-07 19:27 48.17700 12.36361 35481 ft 424 kts 264°
2026-05-07 19:28 48.17395 12.31961 35243 ft 423 kts 264°
2026-05-07 19:28 48.17434 12.27567 35002 ft 423 kts 278°
2026-05-07 19:28 48.18227 12.23319 34772 ft 425 kts 288°
2026-05-07 19:28 48.19235 12.19162 34535 ft 425 kts 288°
2026-05-07 19:29 48.20256 12.15005 34297 ft 425 kts 288°
2026-05-07 19:29 48.21283 12.10856 34083 ft 424 kts 288°
2026-05-07 19:29 48.22311 12.06711 33802 ft 424 kts 289°
2026-05-07 19:29 48.23339 12.02554 33532 ft 424 kts 289°
2026-05-07 19:30 48.24358 11.98402 33264 ft 425 kts 288°
2026-05-07 19:30 48.25373 11.94237 32990 ft 426 kts 288°
2026-05-07 19:30 48.26387 11.90059 32721 ft 426 kts 288°
2026-05-07 19:30 48.27401 11.85873 32452 ft 427 kts 289°
2026-05-07 19:31 48.28416 11.81686 32193 ft 427 kts 289°
2026-05-07 19:31 48.29431 11.77487 31928 ft 428 kts 289°
2026-05-07 19:31 48.30442 11.73276 31674 ft 429 kts 289°
2026-05-07 19:31 48.31455 11.69051 31417 ft 430 kts 289°
2026-05-07 19:32 48.32466 11.64831 31165 ft 430 kts 289°
2026-05-07 19:32 48.33482 11.60593 30911 ft 431 kts 289°
2026-05-07 19:32 48.34498 11.56355 30663 ft 432 kts 289°
2026-05-07 19:32 48.35502 11.52152 30418 ft 433 kts 289°
2026-05-07 19:33 48.36517 11.47891 30172 ft 433 kts 289°
2026-05-07 19:33 48.37531 11.43622 29885 ft 434 kts 289°
2026-05-07 19:33 48.38546 11.39347 29595 ft 435 kts 289°
2026-05-07 19:33 48.39562 11.35071 28761 ft 434 kts 289°
2026-05-07 19:34 48.40575 11.30815 28028 ft 428 kts 289°
2026-05-07 19:34 48.41569 11.26634 27341 ft 421 kts 289°
2026-05-07 19:34 48.42546 11.22503 26652 ft 416 kts 289°
2026-05-07 19:34 48.43507 11.18424 25979 ft 411 kts 289°
2026-05-07 19:35 48.44457 11.14380 25317 ft 407 kts 289°
2026-05-07 19:35 48.45392 11.10381 24658 ft 403 kts 289°
2026-05-07 19:35 48.46317 11.06414 24026 ft 400 kts 289°
2026-05-07 19:35 48.47234 11.02479 23346 ft 396 kts 289°
2026-05-07 19:36 48.48141 10.98579 22713 ft 392 kts 288°
2026-05-07 19:36 48.49036 10.94732 22138 ft 387 kts 288°
2026-05-07 19:36 48.49922 10.90925 21579 ft 383 kts 288°
2026-05-07 19:36 48.50795 10.87161 21036 ft 379 kts 288°
2026-05-07 19:37 48.51659 10.83431 20525 ft 375 kts 288°
2026-05-07 19:37 48.52516 10.79733 20015 ft 371 kts 288°
2026-05-07 19:37 48.53361 10.76070 19531 ft 368 kts 288°
2026-05-07 19:37 48.54194 10.72443 19055 ft 364 kts 288°
2026-05-07 19:38 48.55016 10.68848 18587 ft 361 kts 288°
2026-05-07 19:38 48.55831 10.65282 18090 ft 358 kts 288°
2026-05-07 19:38 48.56646 10.61737 17611 ft 362 kts 288°
2026-05-07 19:38 48.57479 10.58106 17147 ft 365 kts 288°
2026-05-07 19:39 48.58292 10.54552 16671 ft 361 kts 288°
2026-05-07 19:39 48.59109 10.50989 16170 ft 357 kts 288°
2026-05-07 19:39 48.59914 10.47465 15673 ft 354 kts 288°
2026-05-07 19:39 48.60450 10.45102 15333 ft 352 kts 288°
2026-05-07 19:40 48.61493 10.40489 14657 ft 349 kts 288°
2026-05-07 19:40 48.62276 10.37020 14133 ft 347 kts 288°
2026-05-07 19:40 48.63056 10.33573 13568 ft 346 kts 288°
2026-05-07 19:40 48.63837 10.30140 13069 ft 343 kts 289°
2026-05-07 19:41 48.64661 10.26848 12965 ft 329 kts 291°
2026-05-07 19:41 48.65527 10.23638 12890 ft 330 kts 291°
2026-05-07 19:41 48.66417 10.20432 12814 ft 330 kts 292°
2026-05-07 19:41 48.67307 10.17235 12438 ft 329 kts 291°
2026-05-07 19:42 48.68186 10.14049 11912 ft 327 kts 291°
2026-05-07 19:42 48.69052 10.10884 11373 ft 325 kts 291°
2026-05-07 19:42 48.69620 10.08793 11027 ft 324 kts 291°
2026-05-07 19:42 48.70729 10.04685 10745 ft 309 kts 290°
2026-05-07 19:43 48.71524 10.01732 10622 ft 296 kts 290°
2026-05-07 19:43 48.72284 9.98898 10471 ft 286 kts 290°
2026-05-07 19:43 48.73020 9.96139 10204 ft 280 kts 290°
2026-05-07 19:43 48.73743 9.93415 9987 ft 277 kts 290°
2026-05-07 19:44 48.74229 9.91585 9901 ft 277 kts 290°
2026-05-07 19:44 48.74948 9.88883 9768 ft 273 kts 290°
2026-05-07 19:44 48.75646 9.86272 9632 ft 262 kts 290°
2026-05-07 19:44 48.76309 9.83784 9413 ft 255 kts 290°
2026-05-07 19:45 48.76907 9.81250 9211 ft 247 kts 285°
2026-05-07 19:45 48.77405 9.78837 9010 ft 240 kts 285°
2026-05-07 19:45 48.77856 9.76417 8692 ft 237 kts 278°
2026-05-07 19:45 48.77881 9.73963 8210 ft 232 kts 263°
2026-05-07 19:46 48.77556 9.71574 7597 ft 231 kts 254°
2026-05-07 19:46 48.77097 9.69244 7033 ft 231 kts 254°
2026-05-07 19:46 48.76655 9.66912 6475 ft 230 kts 255°
2026-05-07 19:46 48.76219 9.64585 5898 ft 229 kts 255°
2026-05-07 19:47 48.75796 9.62262 5325 ft 228 kts 256°
2026-05-07 19:47 48.75414 9.59967 5105 ft 220 kts 257°
2026-05-07 19:47 48.75038 9.57749 4889 ft 216 kts 256°
2026-05-07 19:47 48.74654 9.55555 4590 ft 215 kts 256°
2026-05-07 19:48 48.74280 9.53381 4352 ft 211 kts 257°
2026-05-07 19:48 48.73925 9.51234 4101 ft 209 kts 257°
2026-05-07 19:48 48.73573 9.49094 4019 ft 209 kts 257°
2026-05-07 19:48 48.73232 9.47016 4046 ft 197 kts 257°
2026-05-07 19:49 48.72907 9.45035 3911 ft 192 kts 257°
2026-05-07 19:49 48.72588 9.43092 3631 ft 188 kts 257°
2026-05-07 19:49 48.72277 9.41201 3389 ft 180 kts 257°
2026-05-07 19:49 48.71984 9.39419 3150 ft 169 kts 257°
2026-05-07 19:50 48.71712 9.37771 2955 ft 153 kts 257°
2026-05-07 19:50 48.71457 9.36255 2799 ft 145 kts 257°
2026-05-07 19:50 48.71210 9.34787 2637 ft 143 kts 257°
2026-05-07 19:50 48.70970 9.33334 2444 ft 142 kts 257°
2026-05-07 19:51 48.70732 9.31888 2247 ft 141 kts 257°
2026-05-07 19:51 48.70494 9.30447 2042 ft 141 kts 256°
2026-05-07 19:51 48.70260 9.29024 1844 ft 141 kts 256°
2026-05-07 19:51 48.70022 9.27578 1653 ft 142 kts 257°
2026-05-07 19:52 48.69766 9.26145 1458 ft 141 kts 252°
2026-05-07 19:52 48.69466 9.24739 1285 ft 140 kts 256°
2026-05-07 19:52 48.69208 9.23364 1210 ft 122 kts 254°
2026-05-07 19:52 48.69012 9.22322 1232 ft 90 kts 254°
2026-05-07 19:53 48.68857 9.21506 1257 ft 72 kts 254°
2026-05-07 19:53 48.68733 9.20856 1266 ft 56 kts 255°
2026-05-07 19:53 48.68677 9.20492 1273 ft 28 kts 266°
2026-05-07 19:53 48.68699 9.20214 1282 ft 19 kts 284°
2026-05-07 19:54 48.68710 9.20146 1285 ft 2 kts 283°
2026-05-07 19:54 48.68711 9.20139 1285 ft 1 kts 283°
2026-05-07 19:54 48.68716 9.20107 1287 ft 3 kts 285°
2026-05-07 19:54 48.68720 9.20091 1288 ft 4 kts 292°
2026-05-07 19:55 48.68756 9.20010 1291 ft 11 kts 310°
2026-05-07 19:55 48.68797 9.19944 1295 ft 8 kts 315°
2026-05-07 19:55 48.68846 9.19892 1299 ft 9 kts 340°
2026-05-07 19:55 48.68888 9.19822 1304 ft 11 kts 270°
2026-05-07 19:56 48.68866 9.19695 1308 ft 14 kts 254°
2026-05-07 19:56 48.68837 9.19536 1311 ft 17 kts 255°
2026-05-07 19:56 48.68803 9.19367 1314 ft 11 kts 252°
2026-05-07 19:56 48.68818 9.19309 1315 ft 6 kts 335°
2026-05-07 19:57 48.68864 9.19291 1316 ft 4 kts 343°
2026-05-07 19:57 48.68872 9.19287 1315 ft 0 kts 344°